Regional Weather Roundup
Issued by NWS Little Rock, AR

Home | Current Version | Previous Version | Graphics & Text | Print | Product List | Glossary On
Versions: 1 2 3 4 5 6 7 8 9 10 11 12 13 14 15 16 17 18 19 20 21 22 23 24 25 26 27 28
000
ASUS44 KLZK 201405
RWRLZK

WEATHER ROUNDUP FOR ARKANSAS
NATIONAL WEATHER SERVICE LITTLE ROCK AR
900 AM CDT SUN APR 20 2014

NOTE: "FAIR" INDICATES FEW OR NO CLOUDS BELOW 12,000 FEET WITH NO
SIGNIFICANT WEATHER AND/OR OBSTRUCTIONS TO VISIBILITY.

ARZ001-003-010-029-201500-
NORTHWEST ARKANSAS

CITY           SKY/WX    TMP DP  RH WIND       PRES   REMARKS
FAYETTEVILLE   MOSUNNY   60  52  74 CALM      30.20S
FORT SMITH     PTSUNNY   62  54  74 E6        30.17F
HARRISON       PTSUNNY   63  50  62 SE6       30.21S
BENTONVILLE    MOSUNNY   63  50  63 S6        30.20S
ROGERS         MOSUNNY   65  50  58 SE12      30.20S
SILOAM SPGS    PTSUNNY   64  48  55 SE6       30.19F
HIGHFILL       MOSUNNY   63  52  67 S9        30.18S
SPRINGDALE     MOSUNNY   63  52  67 S5        30.21S
$$

ARZ004-005-016-201500-
NORTH CENTRAL ARKANSAS

CITY           SKY/WX    TMP DP  RH WIND       PRES   REMARKS
BATESVILLE     MOSUNNY   63  48  59 CALM      30.21S
FLIPPIN        PTSUNNY   57  45  62 CALM      30.21S
MTN HOME       PTSUNNY   64  46  52 SE3       30.20F
$$

ARZ040-041-201500-
WEST CENTRAL ARKANSAS

CITY           SKY/WX    TMP DP  RH WIND       PRES   REMARKS
MENA           PTSUNNY   61  61 100 CALM      30.20S
MOUNT IDA      PTSUNNY   60  54  80 CALM      30.17F
$$

ARZ009-017-025-026-028-201500-
NORTHEAST ARKANSAS

CITY           SKY/WX    TMP DP  RH WIND       PRES   REMARKS
CORNING        FAIR      63  48  59 E3        30.22S
JONESBORO      SUNNY     63  47  55 E5        30.21R
NEWPORT        SUNNY     62  51  67 CALM      30.22S
WALNUT RIDGE   SUNNY     59  50  72 NE3       30.22R
BLYTHEVILLE    SUNNY     64  47  53 S6        30.22R
$$

ARZ022-023-033-042-044-201500-
CENTRAL ARKANSAS

CITY           SKY/WX    TMP DP  RH WIND       PRES   REMARKS
LITTLE ROCK    PTSUNNY   64  55  72 CALM      30.21S
N LITTLE ROCK  PTSUNNY   67  52  57 E3        30.21S
JACKSONVILLE   MOSUNNY   63  53  70 CALM      30.21S
SEARCY         MOSUNNY   62  52  70 NW3       30.22S
HOT SPRINGS    CLOUDY    60  55  83 CALM      30.21S
RUSSELLVILLE   MOSUNNY   63  55  75 CALM      30.19S
CLINTON        FAIR      57  52  82 CALM      30.22S
$$

ARZ036-201500-
EAST ARKANSAS

CITY           SKY/WX    TMP DP  RH WIND       PRES   REMARKS
WEST MEMPHIS   SUNNY     64  51  62 S7        30.21R
$$

ARZ050-053-066-070-073-201500-
SOUTHWEST ARKANSAS

CITY           SKY/WX    TMP DP  RH WIND       PRES   REMARKS
ARKADELPHIA    FAIR      60  56  87 CALM      30.20S
CAMDEN         SUNNY     63  54  72 MISG      30.20S
TEXARKANA      CLOUDY    68  55  63 S5        30.19R
EL DORADO      SUNNY     63  57  81 NE3       30.20S
DE QUEEN       PTSUNNY   60  56  86 E5        30.17S
$$

ARZ056-057-069-201500-
SOUTHEAST ARKANSAS

CITY           SKY/WX    TMP DP  RH WIND       PRES   REMARKS
PINE BLUFF     MOSUNNY   64  56  75 CALM      30.21R
STUTTGART      MOSUNNY   64  52  63 NE3       30.22R
MONTICELLO     SUNNY     67  52  58 E3        30.20R

$$





USA.gov is the U.S. government's official web portal to all federal, state and local government web resources and services.